Location: Saint Peter Port
(49.4500°N, 2.5330°W)
Time: 17:10:17
(UTC+01:00)

Cosmos 2242 Rocket - Visible Passes

Search period start: 01 September 2015 00:00
Search period end: 11 September 2015 00:00
Orbit: 620 x 651 km, 82.5° (Epoch: 31 August)

Date Brightness Start Highest point End Pass type
(mag) Time Alt. Az. Time Alt. Az. Time Alt. Az.
01 Sep 5.8 01:23:32 20° NE 01:23:32 20° NE 01:25:33 10° NNE visible
01 Sep 4.9 03:01:02 32° NW 03:01:02 32° NW 03:04:07 10° N visible
02 Sep 5.4 01:46:07 30° NE 01:46:07 30° NE 01:48:37 10° NNE visible
02 Sep 5.5 03:23:38 20° NW 03:23:38 20° NW 03:26:14 10° NNW visible
03 Sep 5.1 02:08:42 35° N 02:08:42 35° N 02:11:20 10° N visible
03 Sep 6.0 03:46:13 12° NW 03:46:13 12° NW 03:47:33 10° NW visible
04 Sep 6.1 00:53:46 16° NE 00:53:46 16° NE 00:55:02 10° NE visible
04 Sep 5.3 02:31:17 29° NNW 02:31:17 29° NNW 02:33:51 10° N visible
05 Sep 5.8 01:16:20 22° NE 01:16:20 22° NE 01:18:12 10° NNE visible
05 Sep 5.6 02:53:51 20° NW 02:53:51 20° NW 02:56:04 10° NNW visible
06 Sep 5.6 01:38:54 27° NNE 01:38:54 27° NNE 01:41:00 10° NNE visible
06 Sep 6.0 03:16:24 13° NW 03:16:24 13° NW 03:17:43 10° NNW visible
07 Sep 6.4 00:23:57 12° NE 00:23:57 12° NE 00:24:29 10° NE visible
07 Sep 5.6 02:01:27 26° N 02:01:27 26° N 02:03:34 10° N visible
08 Sep 6.1 00:46:29 17° NE 00:46:29 17° NE 00:47:46 10° NNE visible
08 Sep 5.8 02:23:59 20° NNW 02:23:59 20° NNW 02:25:51 10° N visible
09 Sep 5.9 01:09:01 22° NNE 01:09:01 22° NNE 01:10:38 10° NNE visible
09 Sep 6.2 02:46:31 14° NW 02:46:31 14° NW 02:47:42 10° NNW visible
10 Sep 5.9 01:31:33 22° N 01:31:33 22° N 01:33:15 10° N visible
